{"data":{"norad_id":56148,"epoch":"2026-09-20T21:04:27.935040Z","epoch_age_seconds":76106,"freshness":"FRESH","line1":"1 56148U 23046BJ  26263.87810110 -.00000218  00000+0  15930-5 0  9998","line2":"2 56148  43.0044  87.9648 0000852 263.1784  96.8971 15.27568895192478","mean_motion":15.27568895,"eccentricity":8.52e-5,"inclination_deg":43.0044,"raan_deg":87.9648,"arg_perigee_deg":263.1784,"mean_anomaly_deg":96.8971,"bstar":1.593e-6,"rev_number":19247,"period_min":94.267434006634,"perigee_km":482.4977727176,"apogee_km":483.6669244946,"semimajor_km":6861.2193486061,"source":"CELESTRAK","updated_at":"2026-09-21T09:00:33.391142Z"}}